Theta_e
329 329 329 331 332 330 329 330 332 331 327 325 323 323 324 322 324 329 331 331 330 331 331 331 331 330 330 328 326 325 327 328 329 329 328 329 327 324 325 327 326 325 325 325 326 325 324 323 321 321 322 323 323 323 325 322 317 315 317 320 324 327 329 330 330 330 329 329 329 329 329 328 328 325 321 320 321 322 323 324 324 325 326 326 326
329 330 330 331 331 331 331 330 331 329 328 326 323 324 325 323 326 330 331 331 331 331 331 331 331 329 328 326 325 324 325 328 328 328 328 329 327 325 325 327 327 327 326 326 326 327 327 326 323 320 320 324 326 327 326 323 318 315 315 317 320 323 325 327 330 331 329 328 328 329 329 328 328 326 323 321 320 321 323 323 323 324 324 324 324
330 330 330 330 331 331 332 331 330 328 328 327 324 326 326 324 326 329 330 331 331 331 330 330 331 329 327 326 325 324 325 327 328 328 329 329 327 325 325 327 327 328 328 327 327 327 327 327 324 321 319 322 325 326 326 325 322 319 320 322 322 323 324 326 329 330 330 330 329 329 328 328 328 327 325 324 323 323 322 321 321 322 324 324 323
330 330 330 330 331 332 332 332 331 329 329 328 326 326 326 325 326 328 329 329 329 330 329 329 330 329 328 327 325 324 324 326 328 328 328 328 327 326 326 327 328 328 328 328 327 326 326 326 326 324 322 322 323 324 325 325 325 324 323 324 324 324 325 325 326 326 327 326 326 327 327 327 328 328 326 325 325 325 325 323 321 320 322 324 324
330 330 330 331 332 331 332 331 330 329 330 328 325 325 326 325 325 326 327 326 325 327 327 328 329 328 327 327 325 324 324 325 325 327 327 327 326 326 326 327 328 328 327 326 325 324 325 326 328 328 326 326 326 326 326 326 326 326 325 324 324 324 325 326 326 325 324 323 323 325 325 326 327 327 327 326 326 326 326 326 324 321 320 320 323
329 330 330 331 331 331 332 331 330 330 329 326 324 325 326 325 325 325 325 323 323 324 325 326 326 325 325 325 324 324 324 324 323 325 325 325 325 325 326 327 327 327 326 325 325 325 327 328 329 329 329 329 329 329 329 329 328 327 326 325 325 325 326 326 326 326 325 325 325 325 325 325 326 326 327 326 326 326 327 326 326 325 321 319 320
330 330 330 330 330 331 332 331 330 329 328 326 324 326 326 325 324 324 323 322 323 324 325 325 325 324 324 323 322 322 323 323 322 323 324 324 324 325 325 326 326 326 325 326 327 328 329 329 329 330 329 329 329 329 329 329 330 329 329 328 327 326 325 326 326 326 326 326 326 326 325 325 325 325 326 326 326 326 327 326 327 327 325 322 320
330 330 331 330 330 330 331 331 329 329 329 327 325 326 326 325 323 322 322 322 324 326 326 327 325 323 323 322 320 322 323 322 322 322 323 323 323 323 324 325 325 325 326 328 329 330 329 329 329 328 328 328 328 328 330 330 330 330 330 330 329 328 327 327 326 326 326 326 326 326 326 326 325 325 325 325 326 326 326 326 326 327 326 325 323
330 330 330 330 329 330 331 330 329 330 330 327 324 325 325 324 323 322 322 323 325 326 327 327 326 323 322 321 320 322 323 322 321 322 322 323 323 323 323 324 325 327 328 330 330 330 330 329 328 326 326 327 327 326 327 329 328 328 329 329 330 329 329 329 328 327 326 326 326 326 326 326 326 326 325 325 325 325 326 326 326 327 327 327 327
330 329 329 329 329 330 330 331 331 331 331 328 325 325 326 325 324 323 323 324 325 326 327 327 326 325 325 323 320 322 323 322 322 322 322 323 323 323 325 326 328 329 330 331 331 330 330 330 329 326 324 325 326 326 327 329 328 326 327 328 327 327 328 330 330 330 329 328 328 328 328 328 327 327 326 326 325 326 326 327 326 327 327 327 326
329 329 329 329 329 330 331 332 333 332 332 330 327 326 328 327 325 324 323 324 325 325 327 327 326 327 328 325 322 322 323 322 322 322 322 323 324 325 326 328 329 330 330 331 331 332 332 331 329 326 323 324 325 326 328 329 328 327 327 325 323 323 326 328 330 331 330 330 329 329 329 329 329 328 328 327 327 327 327 327 327 327 327 326 326
330 329 330 330 330 332 332 332 334 333 333 333 329 327 328 327 325 324 324 325 325 325 327 327 325 328 329 327 324 323 323 323 323 323 323 324 324 325 327 328 329 330 331 332 332 333 332 330 326 323 320 322 324 325 325 326 326 326 326 323 321 322 325 326 328 329 329 329 329 329 329 329 329 329 329 328 328 328 328 328 327 327 327 327 326
330 330 330 330 331 332 332 333 334 333 334 334 331 327 328 328 325 324 325 326 326 326 328 328 326 328 330 329 326 323 323 323 323 323 324 324 325 325 326 327 328 330 332 332 332 332 330 325 321 320 319 321 324 323 323 323 323 323 324 324 323 322 322 323 324 326 326 326 327 327 328 329 329 329 329 329 328 328 327 328 327 327 327 327 326
330 330 330 330 331 332 332 333 333 333 334 335 331 327 326 326 325 324 325 327 327 325 328 329 328 331 332 331 328 324 323 324 323 324 324 325 325 326 326 327 328 330 331 331 331 330 326 322 319 318 318 320 321 319 318 318 319 320 323 324 323 321 320 320 322 324 325 326 326 326 327 327 327 327 327 327 326 326 326 326 327 327 327 327 327
330 330 330 331 331 331 333 333 333 331 333 335 333 328 325 324 324 324 324 326 326 326 327 328 329 331 332 331 329 326 324 323 324 324 324 325 325 326 326 328 329 330 330 331 331 328 325 322 319 317 317 318 317 315 315 316 318 319 321 320 319 319 319 319 320 323 324 325 325 326 325 325 326 326 326 326 325 325 325 325 326 326 326 326 326
330 331 330 331 331 331 333 333 333 331 332 335 333 329 325 322 323 323 323 325 325 325 327 327 327 329 331 330 329 328 325 323 324 324 324 325 325 325 326 328 329 329 329 331 330 328 325 322 319 318 317 317 316 314 313 314 315 316 317 317 316 317 317 317 318 320 322 323 323 324 324 324 325 325 325 325 325 325 325 325 325 324 324 325 325
331 331 331 331 331 332 333 333 333 331 332 334 333 329 324 322 322 323 323 324 324 324 325 327 326 326 330 331 329 327 326 324 324 324 324 325 325 325 326 328 329 329 330 332 330 329 328 324 320 318 317 316 316 315 314 313 313 313 314 314 314 315 316 317 317 317 320 323 323 322 322 323 324 325 324 324 325 324 324 324 324 323 323 323 324
331 332 331 331 332 332 333 333 332 331 332 333 332 329 326 323 322 323 323 323 323 323 324 325 325 324 327 330 329 327 325 324 324 324 324 325 326 326 327 328 330 330 332 332 329 329 329 326 323 320 318 317 317 316 315 314 312 313 313 313 313 314 315 317 319 319 320 322 322 321 321 322 323 323 323 323 323 323 324 323 323 323 323 323 322
331 332 331 332 332 332 333 332 332 332 333 334 332 330 329 326 323 323 323 323 322 322 323 324 324 323 323 326 328 327 325 324 325 324 324 325 326 326 327 329 330 330 331 331 329 329 328 328 326 323 320 317 317 317 315 314 313 312 313 312 312 313 313 315 319 320 321 321 319 319 319 320 321 320 319 319 319 320 320 320 321 321 321 320 319
332 332 331 332 331 331 331 330 331 332 333 334 331 329 330 329 327 324 322 323 322 322 323 323 323 323 322 323 325 325 324 324 324 324 324 324 325 326 327 329 330 329 330 331 330 328 328 328 328 326 322 319 318 317 315 314 313 312 312 311 311 312 312 312 315 317 319 318 315 314 313 314 316 316 316 316 316 316 316 316 315 315 314 313 313
332 331 331 332 331 330 330 329 330 331 333 334 332 330 332 332 331 328 324 323 323 322 322 323 321 322 322 322 322 323 324 325 325 324 325 326 326 326 327 329 330 329 329 331 330 329 328 328 328 327 325 321 319 318 316 315 315 313 313 311 310 310 310 310 310 310 312 311 309 308 307 307 310 311 312 313 312 312 312 312 310 309 308 309 310
331 332 331 331 331 328 328 329 329 331 334 334 332 331 332 333 333 331 327 323 322 322 321 322 321 320 321 322 321 321 323 324 324 324 325 326 327 326 327 328 329 328 329 330 330 330 328 328 328 328 326 323 321 319 317 316 315 315 313 311 310 309 309 309 307 305 305 305 305 304 304 304 305 305 306 307 307 306 306 306 305 305 306 308 310
331 331 330 330 329 325 325 326 326 329 334 334 332 332 332 333 332 332 330 324 323 322 321 322 322 320 320 321 321 321 322 323 323 324 325 326 326 325 327 328 328 328 329 329 330 330 329 328 329 328 327 324 323 320 318 317 316 315 313 311 310 309 308 307 305 303 303 303 303 303 303 302 303 302 302 302 302 301 301 301 302 304 307 309 311
330 330 331 330 328 325 325 326 326 330 334 334 333 332 332 334 332 332 329 325 323 323 321 321 322 321 320 320 321 321 322 322 322 323 324 324 325 325 326 328 329 330 330 330 329 329 329 329 329 328 327 325 324 321 319 317 315 314 312 310 309 308 306 305 304 303 302 302 302 302 302 301 301 301 301 300 300 300 300 299 300 302 304 306 309
331 331 331 330 328 325 325 326 327 330 333 334 333 331 332 333 332 330 328 326 324 323 322 321 322 322 321 319 320 321 321 322 322 322 323 323 324 325 325 328 330 331 331 331 330 329 329 329 329 328 327 325 324 322 319 317 315 313 311 309 308 306 305 305 304 302 301 301 301 301 301 300 300 300 300 299 300 299 299 299 299 299 300 300 303
331 332 331 329 328 326 325 326 327 329 331 332 332 331 332 332 331 330 328 327 326 323 323 322 321 322 322 320 320 320 321 322 321 321 322 323 324 324 325 328 329 330 332 332 332 332 331 331 329 328 327 326 325 322 318 316 314 312 310 308 307 306 305 304 304 302 301 301 300 300 300 300 299 300 299 299 299 299 299 299 299 299 300 300 300
331 332 330 330 329 326 326 326 327 328 328 330 330 331 332 332 332 332 330 329 327 325 325 324 322 322 322 321 320 320 321 321 321 322 322 322 323 323 324 326 327 330 333 333 333 333 333 331 329 328 327 326 325 323 319 315 313 312 310 308 307 306 305 305 304 303 301 301 300 300 300 299 299 299 299 299 299 299 299 299 299 300 300 299 299
332 332 330 331 330 327 327 326 327 328 328 329 330 330 331 331 331 332 331 331 330 328 327 326 326 325 322 320 320 320 320 321 321 321 322 323 323 323 324 326 327 331 334 333 333 333 333 331 329 328 327 326 325 323 319 315 313 311 310 308 307 307 306 306 305 304 302 301 300 299 299 299 299 299 298 299 298 298 299 299 299 299 299 298 298
332 332 331 331 330 329 327 327 328 328 329 332 333 332 331 330 330 330 330 330 330 330 329 328 328 326 323 321 321 320 320 321 321 322 322 322 323 323 325 326 329 333 334 334 334 334 333 331 329 328 327 327 326 324 319 315 313 311 310 309 308 307 308 308 306 305 305 303 300 299 299 299 298 298 298 298 298 298 298 298 298 298 298 298 298
332 331 332 332 332 331 329 328 329 329 330 332 334 334 333 332 331 331 331 329 329 330 330 330 329 326 324 324 324 322 321 321 322 322 322 322 321 323 325 326 330 334 335 335 335 335 333 332 331 330 328 327 326 324 320 315 312 311 310 309 308 309 309 309 308 309 308 306 301 299 298 298 298 298 298 298 298 298 298 298 298 298 298 298 298
332 330 331 331 332 332 330 329 330 330 331 332 333 333 333 332 332 332 331 330 329 329 329 329 329 327 326 328 328 327 324 322 322 322 322 322 322 323 326 328 330 334 335 336 335 334 333 333 332 331 329 327 326 324 320 315 311 310 309 309 309 309 310 309 310 311 311 308 303 299 298 297 297 298 298 297 297 297 297 297 298 297 297 297 297
332 332 333 332 332 332 331 330 331 332 332 332 332 333 333 332 332 332 332 332 330 330 329 328 328 329 330 330 329 329 329 326 325 324 324 324 324 325 329 330 330 333 335 335 335 334 334 334 333 331 329 327 326 324 321 315 311 309 309 308 309 309 310 310 310 311 312 310 305 299 297 297 297 297 297 297 297 297 297 297 297 297 297 296 296
331 332 333 333 333 333 331 331 332 333 333 332 332 332 332 331 332 332 332 333 332 331 330 329 329 331 332 332 330 330 330 329 329 327 326 327 327 329 331 331 331 333 334 336 336 335 334 334 334 332 329 327 326 325 321 314 310 309 308 309 309 310 311 312 311 311 310 310 307 302 297 297 297 297 297 297 297 297 296 296 296 296 296 296 296
331 331 334 334 334 333 334 333 333 333 334 333 332 332 331 331 332 332 332 333 332 332 333 332 330 331 332 333 333 331 330 331 331 330 329 329 330 331 332 332 332 334 336 336 336 335 335 335 334 332 330 327 326 324 319 313 310 308 308 309 310 311 313 313 312 312 310 310 310 305 298 297 297 297 297 297 296 296 296 296 296 296 296 296 296
336 336 338 339 336 334 334 334 335 335 334 334 333 333 331 331 331 331 332 333 333 333 334 333 332 331 332 332 333 333 332 332 333 333 331 331 331 331 333 334 335 335 336 336 336 336 335 334 334 333 330 327 325 321 315 311 309 307 308 309 309 311 312 312 312 313 312 309 306 302 298 297 297 297 296 297 297 296 296 297 297 297 296 296 296
338 338 340 341 340 338 336 334 335 335 334 335 334 333 332 332 331 331 331 332 333 333 334 334 334 332 331 331 332 334 333 333 333 334 333 332 332 332 334 336 336 335 336 336 336 336 335 335 334 332 330 327 324 319 313 309 307 307 307 308 309 310 309 310 312 312 308 304 300 298 297 297 297 297 297 297 297 297 297 297 297 297 296 296 297
337 337 339 339 341 341 339 337 335 335 334 334 333 332 332 332 331 331 331 332 333 333 334 334 333 333 332 331 332 333 334 334 333 333 333 333 332 332 334 336 336 335 336 337 337 336 335 335 334 333 330 327 323 317 312 308 306 307 307 308 309 308 307 308 309 306 301 298 297 297 297 297 297 297 297 297 297 296 297 297 297 297 296 296 297
335 336 337 338 339 340 341 340 337 335 333 332 330 331 332 332 332 331 331 332 333 334 334 334 333 333 332 331 331 332 334 334 333 333 333 333 333 333 333 335 336 336 336 337 337 337 335 334 333 331 328 326 322 316 311 308 307 307 307 309 309 308 306 307 308 305 299 297 299 301 299 296 296 297 296 296 297 297 297 297 297 297 297 297 297
334 335 335 336 337 339 341 341 339 336 335 332 331 330 331 333 334 332 332 333 333 334 334 334 333 332 331 331 332 332 333 334 333 334 333 333 334 334 333 334 335 336 337 337 338 337 335 334 332 329 327 325 322 316 312 310 307 306 309 311 310 309 308 309 310 307 302 300 303 305 303 298 296 297 297 297 297 297 297 298 297 297 297 298 298
333 334 334 334 335 336 338 339 338 338 338 337 334 332 332 333 334 333 333 334 334 334 334 333 332 332 331 331 331 331 332 333 333 333 332 333 334 334 334 334 335 336 337 338 338 337 336 334 331 328 327 324 320 316 313 310 308 309 311 312 310 309 309 310 311 309 306 304 305 306 305 300 297 296 297 296 297 297 298 298 298 298 298 298 298
332 332 332 333 333 334 335 335 335 335 336 337 336 335 334 333 333 332 332 332 333 334 333 333 332 331 330 331 331 331 332 332 333 333 332 332 333 334 334 334 335 337 338 338 338 336 332 329 328 327 326 324 321 318 313 310 310 313 313 311 310 310 310 311 311 310 309 307 307 307 306 303 298 296 296 297 297 298 299 299 299 299 299 299 299
330 330 331 330 331 332 332 333 333 332 332 334 336 336 335 334 333 331 332 332 331 332 332 332 333 332 331 331 330 331 332 332 333 333 332 333 333 334 334 334 335 337 337 336 336 332 326 326 327 328 326 324 321 318 312 310 313 315 313 310 309 310 311 311 311 311 310 309 308 308 307 305 301 297 296 297 298 299 299 300 300 300 300 299 299
324 325 325 326 327 328 329 331 331 331 331 332 335 335 334 334 333 332 332 332 330 330 330 330 331 332 332 332 332 332 332 332 333 333 333 333 333 334 335 335 336 337 336 335 332 327 325 326 327 328 325 321 317 314 312 312 314 314 311 310 310 311 312 312 311 311 309 309 309 308 308 306 301 297 296 298 299 299 300 300 300 300 300 299 299
321 321 321 321 321 322 325 327 328 329 329 330 331 333 332 333 333 333 333 332 332 331 329 328 330 332 332 332 332 334 333 333 333 333 333 334 334 334 335 336 335 333 332 330 328 325 326 328 328 328 325 319 315 314 313 314 314 312 309 308 310 311 310 309 310 310 309 309 309 309 308 304 298 295 297 299 299 299 300 300 300 300 300 300 299
323 322 321 320 320 320 321 323 325 326 327 328 329 330 331 331 332 332 333 333 332 331 330 329 330 331 332 332 332 333 334 334 334 334 333 334 335 335 335 336 333 329 327 328 327 327 329 330 328 326 324 320 316 314 314 313 311 309 306 306 309 310 309 308 308 308 308 309 309 309 308 304 297 296 298 299 300 300 300 300 300 300 300 299 298
323 323 322 322 322 321 320 321 321 323 325 326 327 328 328 328 328 329 331 333 333 332 331 331 330 330 332 333 333 333 333 333 333 333 332 333 333 334 335 334 330 326 326 329 329 329 330 329 327 325 323 319 316 314 314 312 308 305 304 304 306 307 306 305 305 305 308 310 309 308 308 303 297 297 299 300 300 300 300 300 300 300 300 299 298
321 323 323 324 324 323 322 322 322 321 322 323 324 326 327 327 326 327 328 329 331 331 331 331 331 331 331 331 330 331 331 330 330 330 330 331 331 331 333 332 328 326 327 329 329 329 328 327 326 324 320 316 314 314 314 311 306 304 304 304 304 302 300 300 303 306 308 309 308 308 305 300 297 299 300 300 300 300 300 300 300 300 299 298 297
323 324 323 323 323 322 322 324 325 325 324 322 320 321 323 325 326 328 328 326 326 327 327 327 328 329 330 330 329 328 328 328 328 329 330 331 331 331 331 330 328 328 328 328 327 327 326 326 325 322 318 314 313 315 314 311 307 305 305 305 304 301 298 299 303 306 308 308 307 306 302 298 298 299 300 299 300 300 300 300 300 300 299 297 296
324 323 321 321 321 320 320 322 324 325 326 325 322 320 320 321 323 325 326 326 326 326 325 325 325 326 326 327 326 325 325 325 327 328 329 330 331 331 330 329 328 328 327 326 326 325 325 325 324 321 318 316 316 317 315 311 307 306 306 305 303 300 297 299 304 307 307 305 304 302 299 297 298 299 300 300 301 300 300 300 300 299 298 296 295
321 320 319 320 320 319 319 321 322 323 324 325 325 324 323 322 322 321 321 321 322 324 325 325 325 326 325 324 324 324 324 324 325 327 328 330 330 330 330 329 328 327 326 326 326 325 325 324 323 321 319 318 318 318 315 309 306 306 305 304 302 299 296 297 300 302 302 300 298 298 297 298 299 300 300 300 300 300 300 299 299 298 297 296 295
317 318 318 319 319 318 318 319 320 321 322 324 326 326 326 326 327 326 323 321 320 322 324 324 325 325 325 325 325 325 325 325 326 326 327 328 328 329 329 328 328 327 326 326 325 325 324 323 322 320 319 318 317 316 313 309 307 306 306 305 302 299 296 295 297 298 298 297 296 296 298 300 300 300 300 300 300 300 299 298 298 297 296 295 294
Wind_Speed
22 22 22 23 22 18 16 15 14 13 13 13 12 12 11 9 11 13 13 12 10 11 11 11 11 11 10 10 11 10 11 12 10 12 14 15 18 20 22 24 23 22 22 22 21 20 18 17 15 13 12 12 12 12 12 13 14 14 13 11 10 10 11 11 11 13 15 16 15 14 13 14 16 18 19 17 13 12 12 12 12 12 13 15 17
23 24 25 24 22 18 15 14 14 14 14 13 12 12 10 10 13 13 12 12 10 10 11 11 10 9 9 11 12 12 13 14 12 12 15 15 17 19 21 21 21 21 20 19 19 19 19 18 17 15 12 11 11 11 11 12 16 18 18 16 15 13 11 9 8 9 12 14 14 13 12 13 14 15 18 19 17 13 11 11 11 10 10 11 12
26 27 27 24 22 19 16 14 14 14 14 13 13 12 11 11 13 13 13 13 11 9 10 11 10 8 9 11 14 15 15 15 14 13 14 15 17 18 18 19 19 19 19 17 16 16 18 19 21 21 18 15 13 12 12 13 16 19 21 21 20 19 17 13 10 7 8 9 9 9 9 9 11 13 15 17 18 16 14 12 10 8 8 9 9
30 29 27 25 22 20 18 15 14 15 15 14 14 13 12 12 13 13 12 12 11 10 10 11 11 11 11 13 15 16 16 15 15 14 13 14 16 17 16 17 17 18 18 18 17 16 18 20 22 23 22 20 18 18 17 17 17 17 18 19 20 20 21 19 16 11 8 6 5 7 7 6 7 10 12 14 15 15 15 15 13 9 6 5 6
31 29 27 25 23 22 18 16 16 16 16 16 15 14 13 13 13 13 12 12 12 12 11 12 13 14 13 14 15 16 16 14 14 14 13 12 15 17 17 17 17 16 17 18 18 18 18 19 20 20 20 19 19 20 20 19 19 17 16 16 17 18 18 19 18 17 14 11 10 9 9 8 6 6 9 12 13 13 13 14 15 13 8 4 3
32 30 28 26 23 22 19 17 17 17 17 16 15 14 14 13 13 14 14 13 13 12 12 13 13 14 14 14 14 15 15 14 14 14 13 14 17 18 18 18 17 16 17 17 17 17 17 18 19 19 19 18 18 19 19 19 19 18 16 15 15 15 15 16 17 16 17 16 15 13 12 10 8 6 6 8 11 12 11 12 14 13 11 7 3
33 31 29 26 24 22 21 19 18 18 17 16 16 15 14 14 15 15 15 14 14 13 13 13 14 14 14 13 13 14 15 15 15 15 15 17 18 18 17 17 17 16 17 17 16 16 17 17 18 18 18 18 18 17 17 17 17 17 16 15 14 13 12 14 14 13 14 14 13 13 11 10 9 8 7 7 8 11 11 12 14 13 12 11 7
35 32 29 27 24 23 23 20 18 18 17 17 17 16 15 15 15 16 15 15 14 14 14 14 14 14 14 13 14 15 15 15 16 17 17 17 17 17 17 17 16 16 16 16 16 16 16 17 17 16 16 16 16 15 15 14 14 14 13 13 13 12 12 12 11 10 11 11 10 9 9 9 9 9 8 6 6 9 10 11 13 14 13 12 10
35 33 31 28 25 24 23 20 18 18 18 18 18 17 16 15 15 16 16 15 15 15 15 15 14 14 14 14 15 17 16 16 16 17 17 17 17 18 18 17 17 16 16 15 15 15 15 16 15 15 15 15 15 14 13 12 11 11 11 11 11 11 11 10 9 9 8 7 6 6 6 7 7 8 8 7 6 8 10 11 11 12 14 13 9
35 33 31 28 25 23 22 20 18 18 18 18 18 18 16 15 16 17 16 15 15 15 15 15 16 16 15 15 16 17 17 17 17 17 18 18 18 18 17 17 17 16 16 15 14 14 15 14 14 14 14 13 12 11 11 9 9 9 9 9 9 9 9 8 8 7 6 5 4 5 5 5 6 7 7 8 7 7 9 10 10 11 15 16 11
36 34 31 27 25 23 22 20 19 19 19 18 18 19 17 16 16 17 17 16 15 15 15 16 17 16 15 15 16 16 17 17 17 18 18 18 18 18 17 17 16 16 15 15 14 14 13 13 13 13 12 11 10 9 9 8 8 8 8 8 8 8 8 8 6 5 5 4 4 4 5 5 6 6 6 7 6 6 7 9 9 11 14 17 15
37 35 31 28 27 26 24 22 20 20 20 20 19 19 17 16 17 17 18 17 15 15 17 18 18 16 14 13 14 15 16 16 17 18 18 17 17 17 17 17 16 15 15 14 14 12 11 11 11 10 10 10 9 10 9 8 8 8 7 8 8 8 9 8 7 6 5 5 5 5 5 5 4 4 5 6 6 6 7 7 6 8 11 14 15
36 35 32 30 29 29 27 24 22 21 21 21 20 20 18 17 18 18 19 18 16 16 19 19 18 16 14 12 12 13 14 15 16 17 17 16 16 16 16 16 16 15 15 13 12 11 10 9 10 9 10 10 9 9 9 9 8 8 7 8 9 9 9 8 7 7 7 7 7 6 6 5 5 5 5 5 5 5 5 5 5 6 8 10 12
37 35 33 32 31 30 28 26 24 22 22 22 21 21 20 19 19 19 19 18 17 17 19 19 18 17 15 13 12 12 14 16 16 17 17 15 15 15 15 15 15 14 13 12 10 9 9 9 9 10 10 9 9 10 10 10 9 9 8 8 9 10 9 8 7 7 7 7 7 7 7 7 6 6 5 5 5 5 6 7 6 6 8 8 9
36 35 34 32 32 31 29 27 25 22 22 22 21 21 21 21 20 21 20 19 18 18 20 20 20 18 16 15 13 13 15 16 16 15 15 14 14 15 15 14 14 13 12 11 8 7 8 8 9 10 10 9 10 10 10 10 10 10 10 10 11 10 8 8 7 6 6 6 6 6 5 6 6 5 5 4 5 5 6 7 7 7 8 9 8
35 35 34 33 32 31 29 29 27 24 23 23 22 22 22 22 21 21 21 20 19 19 20 21 20 20 18 17 15 15 15 16 16 15 15 14 14 15 14 13 13 12 11 9 7 6 7 8 9 10 10 9 10 10 10 10 9 10 10 10 10 9 8 8 7 6 6 6 5 5 4 4 5 4 4 4 4 4 4 4 4 5 6 7 8
36 35 34 33 32 31 29 29 28 26 25 25 23 21 22 23 23 22 22 21 20 20 21 20 20 20 20 19 18 16 16 16 16 15 15 15 14 13 13 12 12 11 9 8 6 5 6 7 9 9 9 8 9 9 9 9 8 9 9 10 10 8 7 8 7 7 7 6 5 4 4 4 4 3 3 3 3 3 2 2 2 3 3 4 6
36 35 33 31 31 30 30 29 29 27 27 26 23 21 21 22 24 23 23 23 22 21 21 21 20 20 21 22 20 18 17 16 16 16 16 16 14 13 12 12 11 10 8 7 5 5 5 6 7 8 7 7 8 8 7 7 7 8 8 9 9 7 6 6 6 6 6 6 5 5 4 5 4 3 3 3 2 2 2 1 1 2 2 2 5
37 36 34 32 31 30 30 30 29 28 28 27 24 21 20 21 23 23 23 23 23 22 22 22 21 20 21 23 21 19 18 18 17 17 17 17 15 14 13 11 11 9 8 6 5 4 5 5 6 6 5 5 6 6 6 6 6 7 7 8 7 6 5 5 4 4 4 4 3 4 4 4 4 2 2 2 1 1 1 1 1 1 1 1 3
38 38 35 33 31 29 29 30 29 29 29 28 25 23 22 21 21 23 23 23 23 23 23 22 21 20 21 23 22 20 19 19 18 18 18 17 16 14 13 12 11 10 9 6 5 3 4 4 4 4 3 3 4 5 5 5 5 6 6 6 6 5 5 5 3 2 2 2 2 3 3 4 3 2 2 2 1 0 0 2 2 1 1 1 2
40 39 37 34 31 29 29 29 29 30 30 29 26 25 24 22 21 22 24 25 24 24 24 23 22 22 22 23 23 21 20 20 19 18 17 17 16 15 14 13 12 11 9 7 5 4 2 2 2 1 1 1 2 3 4 4 4 5 5 4 4 4 4 4 3 3 3 3 3 3 4 4 3 3 2 2 2 1 2 2 2 2 1 1 2
41 39 38 35 32 29 29 30 30 31 32 31 28 27 27 26 24 23 24 26 26 25 25 24 23 23 23 24 23 23 22 21 21 20 18 17 17 16 16 14 13 11 10 8 7 6 4 2 1 1 2 2 0 2 3 3 3 4 4 3 2 2 3 3 3 4 5 4 3 3 4 5 4 2 2 2 2 2 1 1 1 1 1 2 2
41 40 38 35 32 29 29 31 32 34 35 33 31 31 30 29 27 26 25 26 27 26 25 25 24 23 24 25 25 24 24 23 23 22 20 19 18 18 17 16 14 12 11 10 9 8 6 4 4 4 4 3 2 0 1 1 2 2 2 2 1 1 2 2 2 3 4 3 2 2 3 4 3 2 2 3 3 3 3 2 2 2 2 2 2
40 39 38 35 32 30 30 32 33 35 36 35 33 33 33 31 30 29 27 27 28 27 26 26 26 25 25 26 26 26 26 25 24 23 22 21 20 20 19 17 16 14 12 12 11 10 9 7 7 7 6 5 4 2 1 1 1 2 2 2 1 1 1 1 1 2 3 2 1 1 3 3 2 1 2 3 3 3 3 3 3 3 2 1 1
39 39 38 36 33 32 31 33 34 35 36 35 35 35 35 34 33 31 29 27 28 28 28 27 27 26 26 27 27 27 27 26 25 24 23 22 21 20 20 19 18 16 14 14 14 13 12 10 10 9 8 6 5 4 3 2 3 3 3 3 2 1 1 1 1 1 2 2 1 1 2 2 1 0 1 3 3 3 4 4 4 4 3 2 2
38 38 38 37 35 33 33 33 34 35 35 35 35 37 37 35 34 32 30 29 28 29 29 28 28 27 27 28 28 29 29 28 27 25 24 23 22 21 21 21 19 17 16 16 15 14 14 13 12 12 10 8 6 5 4 4 4 4 4 4 3 3 2 2 1 2 2 2 2 2 2 2 1 1 2 3 4 4 5 5 5 6 6 4 4
40 39 39 37 35 34 33 33 33 33 33 33 34 36 38 37 35 34 32 30 29 29 30 30 29 29 28 29 29 30 30 29 28 27 26 24 23 22 22 22 20 18 18 18 17 16 15 15 15 13 11 9 7 6 5 5 5 6 6 6 4 4 3 3 2 3 3 4 4 3 3 3 2 3 4 5 5 5 5 5 6 6 6 5 4
38 38 39 38 36 35 34 33 33 32 32 32 32 33 34 35 35 34 33 32 31 31 31 30 30 30 30 30 30 31 31 30 29 28 27 26 25 24 23 23 22 20 19 19 19 18 17 17 16 15 12 11 9 8 7 7 7 7 7 7 6 5 4 4 3 3 3 4 4 4 3 3 4 5 5 6 5 5 5 5 5 5 5 4 4
37 38 39 38 36 35 34 33 33 32 32 32 31 31 31 31 32 32 32 32 32 32 32 32 32 32 32 31 30 31 31 31 30 30 30 29 27 26 25 24 23 22 22 21 20 20 19 18 18 16 14 12 12 10 9 9 9 9 9 8 7 6 5 4 3 3 4 4 3 4 4 4 5 5 6 6 5 5 5 4 5 5 5 5 5
35 36 37 37 36 35 34 33 32 32 32 32 32 31 31 30 30 30 30 30 31 32 32 33 34 34 33 32 31 32 32 32 31 32 32 31 30 29 27 26 25 24 24 23 23 22 21 20 19 18 16 15 14 13 12 11 11 10 10 9 8 7 6 5 4 3 4 4 3 3 4 4 5 6 6 6 6 5 5 5 5 6 7 7 8
38 38 37 36 35 35 35 33 32 32 32 32 32 31 31 30 30 30 30 28 29 31 31 33 35 35 34 34 33 33 33 33 33 33 33 33 33 32 29 27 27 27 26 25 25 25 24 22 21 20 19 17 16 15 14 13 13 12 11 10 9 8 7 5 5 3 2 4 3 3 4 5 5 5 6 6 6 6 5 6 6 7 9 10 12
26 30 33 35 36 36 35 34 32 32 32 32 31 31 32 32 32 31 31 30 30 29 30 31 33 34 34 34 34 33 34 34 34 34 33 33 33 33 31 29 29 29 29 28 27 27 26 25 24 23 21 20 18 17 16 15 15 14 12 11 11 10 9 7 5 5 3 2 3 3 4 6 6 5 6 6 6 5 5 6 7 8 10 11 12
6 10 15 23 31 34 34 33 31 31 32 31 30 31 31 31 32 32 33 33 32 30 30 30 31 32 34 34 34 34 34 34 34 34 34 33 33 34 32 31 30 31 30 30 29 29 28 27 26 25 24 22 20 18 17 16 16 15 13 12 12 11 11 9 6 6 5 1 1 2 4 6 6 6 5 5 5 4 5 6 7 8 9 11 11
3 8 10 12 20 28 33 34 32 31 31 30 30 30 29 29 31 34 35 35 34 33 31 30 30 31 33 33 33 34 34 34 34 33 33 33 34 34 34 32 31 32 32 32 32 31 31 29 28 27 25 23 21 19 18 18 17 15 14 13 13 12 12 10 9 8 6 3 2 1 4 6 6 6 5 4 4 4 4 5 6 7 9 10 10
3 2 5 7 8 18 30 36 35 32 31 33 34 32 30 30 32 34 37 37 36 35 33 32 31 31 32 33 34 34 34 34 34 33 33 34 34 35 35 34 33 34 34 34 34 34 33 31 29 28 26 23 21 19 19 19 18 16 15 14 13 12 11 11 10 8 6 4 3 3 7 7 6 6 4 3 3 3 4 4 6 8 10 10 9
13 8 8 9 7 7 17 29 35 35 34 35 36 35 34 34 34 35 37 38 37 36 35 34 33 31 31 32 33 34 34 34 35 35 34 34 35 35 36 36 35 36 36 36 36 35 34 32 31 29 27 23 21 20 21 20 19 18 17 15 13 13 12 12 10 8 6 5 4 6 8 7 6 5 4 2 2 4 4 5 7 10 10 10 9
15 13 11 10 9 8 8 13 24 33 37 37 36 36 37 37 37 37 38 38 38 38 36 35 34 33 31 31 32 34 34 34 35 37 37 36 35 36 37 38 38 38 39 39 38 37 36 34 32 31 28 23 21 22 22 21 21 20 18 16 15 13 13 12 10 8 8 8 8 8 7 6 6 4 2 1 2 4 4 5 7 9 10 10 9
15 15 14 13 11 10 9 9 9 19 31 36 35 35 36 37 38 38 38 39 39 38 37 36 35 34 32 30 31 32 34 35 36 37 38 38 37 37 38 40 40 40 41 40 39 38 38 36 34 31 27 22 21 22 22 22 22 20 18 16 15 13 13 14 11 10 11 11 10 8 7 5 5 3 2 0 2 3 4 5 7 9 10 11 10
17 18 19 19 16 11 7 7 6 5 14 23 28 31 31 33 36 37 37 38 39 38 37 36 34 34 33 31 31 31 32 34 36 38 38 39 39 39 39 40 41 42 42 42 42 42 41 39 36 31 24 21 22 22 22 23 22 20 18 16 14 14 16 16 12 12 14 13 11 9 7 6 4 3 2 1 2 3 4 5 7 9 11 12 12
18 18 20 22 21 16 12 11 11 9 7 9 14 20 23 26 31 33 33 35 37 38 38 36 34 34 34 33 32 31 32 33 34 36 38 40 40 40 39 40 42 43 45 46 45 46 46 42 36 29 24 22 23 23 23 24 22 19 17 16 15 16 18 17 14 14 16 15 12 10 8 6 4 3 2 1 2 3 4 5 7 10 12 12 13
18 16 17 21 23 22 20 19 18 15 11 8 7 6 12 19 24 27 29 31 34 35 38 40 39 37 35 34 33 32 32 34 35 35 37 40 41 41 41 42 44 46 49 50 49 49 46 39 32 27 24 23 23 22 24 25 21 17 16 16 17 18 18 18 16 16 17 16 14 11 9 7 4 3 2 1 2 2 4 6 7 9 10 11 13
17 16 16 18 21 23 23 21 21 21 15 9 6 6 5 8 14 18 22 25 26 25 26 32 38 39 36 35 35 34 33 33 36 37 39 41 42 42 42 44 46 49 51 51 51 48 41 33 28 26 25 24 24 23 24 23 19 16 15 16 19 20 19 19 19 18 18 17 15 13 11 8 5 3 2 1 1 2 4 5 6 7 9 10 11
17 18 19 20 21 22 23 23 21 22 20 13 8 9 9 7 6 9 13 17 21 20 18 21 28 36 39 38 37 37 36 37 38 40 42 43 43 44 45 46 49 52 53 53 50 45 36 28 26 27 27 28 28 25 24 21 18 15 15 17 20 21 20 21 21 20 18 17 16 15 13 9 6 4 3 1 1 2 4 4 5 6 8 9 11
16 17 19 21 21 20 21 21 20 19 19 18 17 17 15 11 7 7 9 11 15 19 23 22 22 27 36 42 41 39 39 40 41 43 44 44 45 46 46 48 50 52 52 50 45 37 29 26 28 29 29 31 29 25 23 20 17 15 17 20 22 20 18 19 19 19 18 18 18 17 13 9 6 5 4 3 2 4 4 4 5 6 8 10 12
13 14 16 18 19 18 17 18 19 19 18 17 16 16 16 13 8 6 7 7 8 12 18 22 20 20 24 31 36 38 38 37 39 41 42 43 45 46 47 49 50 50 48 44 37 31 27 28 30 31 32 32 29 25 22 20 17 17 20 22 23 21 20 19 17 16 18 20 20 17 13 10 7 6 5 5 5 6 6 5 5 7 9 12 14
12 13 15 18 18 18 17 16 17 17 18 18 15 14 13 13 12 11 8 8 10 11 12 15 20 21 18 17 18 21 23 23 25 27 30 35 38 41 45 48 47 42 39 36 33 30 30 31 32 32 33 33 30 25 22 19 18 20 22 22 21 20 20 19 17 16 19 22 21 17 14 11 9 7 7 7 7 7 6 6 7 9 11 13 15
12 13 15 17 17 17 18 18 18 16 14 15 15 14 13 12 12 12 10 6 7 10 11 11 14 19 20 18 15 12 11 13 14 14 15 21 27 35 41 43 39 34 33 33 31 31 32 33 33 34 34 32 28 24 22 21 21 23 23 21 18 16 16 17 17 18 21 23 20 17 13 11 9 9 10 9 9 8 7 7 8 10 12 14 15
13 13 15 17 18 18 19 20 19 18 16 13 12 13 13 10 9 8 6 4 5 7 8 10 11 12 14 15 15 13 11 12 13 13 13 15 21 29 35 34 31 29 30 31 30 31 32 32 33 34 33 30 26 23 22 22 23 24 23 20 16 14 15 17 19 20 21 20 18 15 13 12 12 12 11 10 9 8 7 8 10 11 13 15 15
13 15 16 17 18 19 19 19 18 18 17 15 14 15 14 10 8 7 6 7 10 13 15 16 15 13 13 14 15 16 15 14 14 14 15 16 21 26 28 27 26 27 28 27 27 26 27 29 32 34 32 27 23 22 23 23 24 24 22 18 14 13 15 18 19 19 18 17 16 15 15 15 15 14 12 10 8 7 7 9 11 12 13 14 15
14 15 16 16 17 18 19 18 17 17 16 15 16 17 16 13 11 10 10 11 12 14 15 16 16 14 14 15 17 18 18 16 15 15 16 19 22 24 26 26 27 28 29 28 26 24 23 24 28 31 29 22 17 17 20 24 25 23 20 16 13 13 16 18 18 17 16 15 15 15 16 17 16 14 12 10 9 8 9 11 12 13 13 14 15
16 16 16 16 16 18 19 18 18 17 15 14 14 17 17 15 14 13 13 13 12 11 12 13 13 13 13 13 14 14 14 15 16 17 18 20 22 23 25 27 29 31 30 28 27 25 23 21 21 24 24 19 15 16 20 26 27 24 21 18 15 15 16 17 17 17 16 15 15 15 16 16 15 13 12 11 10 10 11 12 12 12 13 15 16
Wind_Direction
188 189 190 185 186 188 186 190 197 198 189 181 174 166 168 167 155 147 142 142 137 125 117 116 115 111 108 99 102 125 132 121 103 83 80 74 68 77 85 84 81 80 80 83 84 82 78 77 84 95 104 103 93 86 79 73 77 84 91 95 95 95 98 97 100 104 98 93 91 85 76 66 59 54 56 61 64 64 62 57 57 63 71 77 77
190 190 187 184 187 187 185 191 198 194 184 180 173 164 168 170 164 159 152 152 147 136 133 129 125 115 105 97 97 112 127 126 114 93 85 81 77 81 87 86 84 81 78 78 79 81 79 75 74 80 95 103 95 87 76 70 78 86 89 93 94 95 97 97 101 109 101 95 94 89 78 69 64 59 60 66 70 69 63 50 44 49 59 70 76
181 183 183 185 187 188 189 195 201 196 185 180 174 170 174 172 171 169 159 156 154 150 145 136 132 122 108 103 100 107 123 127 119 103 93 88 84 84 86 85 83 82 82 80 76 77 78 74 72 76 85 96 98 91 78 71 77 83 86 87 88 92 95 93 92 101 103 99 95 89 82 72 68 65 62 62 65 67 67 56 43 40 50 64 71
175 179 181 184 187 189 193 199 200 195 187 183 179 177 176 173 174 168 158 159 161 161 158 144 136 130 123 114 104 105 118 127 125 118 109 98 90 89 92 91 86 82 81 82 79 77 75 72 71 74 80 84 86 85 80 76 74 77 82 84 85 87 89 88 87 88 93 99 92 87 85 74 66 65 62 60 58 58 59 58 52 47 48 55 63
179 181 183 186 189 192 196 200 199 195 191 187 185 182 176 174 174 166 161 160 159 161 160 151 142 137 131 121 110 105 109 120 129 130 124 112 102 101 102 101 97 91 86 84 84 81 78 74 71 74 76 76 76 77 76 74 71 71 75 80 80 82 84 85 85 84 85 86 84 81 76 70 69 69 64 60 55 48 48 52 50 50 51 45 41
186 187 187 188 191 194 196 199 198 196 194 190 188 186 179 178 174 166 164 160 156 157 153 149 144 139 131 122 116 109 105 112 124 131 132 124 117 113 112 109 105 100 94 89 85 82 80 78 76 76 75 73 71 72 74 73 72 71 70 72 73 75 80 82 81 84 85 82 79 75 70 68 73 81 78 68 57 48 46 49 43 46 55 58 54
189 190 189 190 193 195 196 199 199 194 192 192 190 188 184 182 175 166 164 161 159 155 149 147 144 135 126 121 119 116 112 112 116 124 129 127 123 119 117 113 107 102 97 92 87 83 81 78 77 78 76 73 68 67 68 69 69 70 70 70 71 74 77 77 78 84 86 81 77 72 66 64 66 76 87 86 70 56 50 48 43 46 55 57 62
189 189 191 194 196 198 198 199 198 193 192 193 189 189 188 183 175 169 166 165 164 159 152 149 145 134 128 126 124 123 120 115 115 121 125 126 124 121 118 114 108 103 98 93 89 84 80 77 75 75 74 72 69 67 66 64 62 63 64 66 69 72 73 73 76 80 81 82 80 68 57 53 54 63 75 87 84 65 53 49 50 54 56 50 48
193 193 194 197 199 200 200 197 195 194 195 195 188 187 188 184 177 173 171 170 170 167 160 153 147 139 133 133 130 129 128 123 120 121 123 124 123 120 118 115 111 105 98 93 90 86 82 77 72 67 64 62 62 63 65 64 60 58 60 63 62 63 65 68 72 75 74 75 68 51 46 49 55 62 68 75 76 62 47 44 52 60 58 48 35
195 197 196 199 201 200 200 198 196 198 199 194 188 186 187 186 182 177 174 173 174 174 167 154 147 143 139 138 135 134 135 132 128 126 125 126 124 121 119 115 111 106 101 97 91 86 80 73 65 58 54 54 55 56 60 61 59 61 64 64 61 59 60 60 65 69 67 64 49 43 51 55 58 59 57 55 53 49 40 39 51 60 56 51 42
194 197 197 199 200 198 198 198 198 201 200 194 191 188 187 190 187 180 175 173 176 176 166 155 150 147 144 143 141 141 141 139 136 133 131 129 127 125 123 119 113 108 103 95 86 79 73 67 59 51 49 53 53 51 54 54 54 62 65 63 64 67 67 62 62 67 66 61 43 40 49 43 40 38 34 31 23 26 29 34 56 64 59 61 60
193 194 195 196 197 196 197 198 199 200 197 194 194 190 188 194 192 184 178 175 178 175 164 159 155 149 147 148 148 148 146 145 143 139 136 135 132 129 126 122 116 109 99 89 82 78 72 66 57 49 48 50 48 44 46 44 43 51 55 54 58 65 68 66 69 72 66 60 48 38 32 21 22 28 22 11 2 8 10 15 46 67 72 74 72
192 193 195 196 196 196 196 197 198 198 195 195 197 192 189 196 195 188 182 178 180 177 168 165 159 154 152 151 155 156 152 151 149 144 141 140 137 132 128 125 117 107 97 89 84 80 74 66 56 51 48 46 43 41 43 42 41 47 52 51 53 55 59 66 74 78 72 64 60 56 49 41 40 36 19 9 10 12 12 16 34 62 83 89 84
191 192 195 197 197 196 196 197 197 196 196 197 200 196 191 196 197 192 186 182 184 180 172 169 164 160 159 157 161 163 161 159 154 148 146 146 143 137 132 127 116 107 100 91 85 81 75 65 56 52 47 44 44 43 45 47 47 52 55 54 53 52 55 66 73 74 71 65 64 63 63 64 64 56 42 34 36 34 39 53 64 77 92 98 93
191 193 196 198 199 197 196 197 197 196 197 200 203 200 195 196 197 193 188 186 188 182 173 172 170 166 166 165 166 167 166 164 159 155 154 152 149 144 137 128 117 111 104 95 90 88 78 68 60 53 49 46 47 45 45 48 47 46 46 47 51 55 60 69 74 74 70 66 64 61 59 65 67 66 65 61 54 47 43 58 79 96 97 92 89
189 194 197 199 198 197 197 197 197 197 199 203 206 202 197 196 197 195 189 187 191 186 178 178 176 174 172 171 172 172 171 168 164 164 162 157 154 149 141 130 122 117 112 105 102 98 84 73 65 58 54 49 48 46 44 46 42 38 38 41 48 52 53 59 64 69 72 69 63 58 52 60 64 62 68 73 72 67 54 53 69 96 104 98 90
189 195 198 198 197 198 198 198 199 199 199 204 208 204 198 197 197 196 191 189 192 191 186 184 184 182 179 178 179 179 177 175 172 171 167 162 161 157 147 136 131 128 122 117 116 109 97 83 71 63 60 55 50 46 43 43 40 37 37 41 46 45 44 53 53 52 64 70 68 70 70 77 80 68 59 70 84 92 85 62 48 61 88 104 101
191 195 195 196 197 198 199 200 202 202 201 204 208 205 199 199 198 198 196 192 193 194 191 189 186 184 183 182 184 185 183 179 178 177 172 170 170 166 158 147 143 142 134 129 129 121 107 94 82 70 63 62 56 48 42 42 42 40 39 41 45 42 40 56 56 50 62 68 71 83 85 91 99 88 73 76 78 85 87 85 71 60 62 86 102
188 191 192 194 197 199 200 201 203 204 203 205 208 206 201 200 201 202 202 197 195 195 193 191 189 187 185 186 188 190 186 182 183 184 181 179 177 172 167 160 156 152 144 145 146 126 109 100 90 74 66 70 65 55 47 44 41 40 41 41 43 40 38 54 63 64 73 73 77 95 100 108 119 114 105 107 95 79 60 30 79 136 151 104 112
186 189 192 194 197 200 202 202 203 204 204 205 208 208 203 201 203 205 206 203 199 198 196 193 192 191 189 189 192 194 190 186 187 189 188 184 179 177 175 169 169 166 156 163 174 142 112 97 85 71 63 71 71 66 55 45 40 38 39 41 44 43 43 53 67 81 89 94 105 119 122 126 144 170 163 158 179 179 298 309 315 304 265 176 176
188 192 194 194 196 200 203 204 204 203 203 205 209 210 208 206 207 208 208 207 204 201 198 196 195 195 194 193 193 194 192 191 192 195 194 189 183 183 181 176 179 178 168 175 194 183 143 108 89 53 11 37 71 76 66 49 38 33 32 36 43 43 44 58 76 99 110 121 129 131 133 133 154 194 201 193 204 219 245 276 295 301 277 189 180
191 194 195 194 195 199 202 202 202 201 202 205 209 211 210 211 212 213 212 210 207 204 200 199 198 198 199 198 196 195 194 194 196 197 198 197 191 188 186 186 190 188 180 189 208 212 209 203 216 275 294 298 337 72 70 53 31 24 21 25 37 33 34 56 80 100 108 117 126 125 124 124 136 166 177 172 170 171 185 226 256 246 205 166 147
194 195 196 195 195 198 200 200 201 201 201 205 208 210 210 211 213 215 215 212 210 209 205 202 201 201 201 202 200 199 198 199 200 200 201 202 198 193 191 193 197 196 194 203 217 223 226 234 250 255 260 264 264 294 52 38 9 359 359 358 14 18 23 46 77 100 105 106 112 117 110 106 115 135 133 126 117 114 116 103 112 144 159 155 139
193 195 196 195 195 197 199 201 201 202 203 206 208 208 208 210 214 217 217 214 211 211 209 206 205 203 203 205 205 204 204 204 205 204 204 205 203 199 196 197 201 203 204 211 222 230 233 236 245 250 253 253 250 260 286 290 296 303 311 313 317 335 356 47 81 100 108 107 98 99 98 93 86 99 108 103 99 95 89 84 95 116 134 131 129
192 193 193 193 195 197 199 201 203 204 206 208 209 208 208 210 215 218 217 215 212 211 211 210 209 207 206 207 209 209 208 208 209 209 208 208 209 208 204 202 206 208 210 217 225 231 233 235 242 248 253 252 250 255 258 252 261 270 268 264 257 253 248 179 138 130 134 135 130 112 103 98 95 108 99 92 88 84 81 82 86 87 82 73 75
191 191 193 195 197 198 200 202 203 206 208 210 209 209 209 211 215 218 219 217 215 213 213 213 212 211 210 210 211 212 212 211 213 214 214 213 213 214 212 211 213 215 217 223 227 231 233 236 242 248 252 252 252 255 254 250 252 253 251 244 231 223 226 214 180 170 169 164 157 144 130 129 134 116 92 82 78 77 76 76 77 79 77 73 74
194 193 194 198 198 200 203 204 205 208 210 211 210 209 211 214 216 219 221 221 219 217 216 216 215 214 214 213 213 214 215 215 215 217 218 217 216 217 216 216 217 218 219 224 227 230 234 238 243 248 249 250 253 254 252 250 250 251 249 242 231 227 229 223 198 173 169 165 156 149 143 135 126 103 89 81 73 69 64 61 67 74 70 61 58
193 194 196 199 200 202 204 205 208 211 212 213 212 211 213 215 217 220 222 223 222 220 219 219 219 218 217 216 217 217 217 217 218 219 220 221 220 219 218 218 218 218 222 226 228 232 236 240 244 248 247 249 253 250 244 243 241 240 242 242 239 236 233 230 211 175 165 161 151 151 152 135 121 109 96 85 75 65 57 53 64 70 57 41 36
191 195 200 202 204 204 204 206 210 212 214 215 214 215 216 217 218 220 221 222 222 223 223 222 222 222 221 219 220 220 220 220 220 221 222 224 225 224 222 220 218 219 224 227 231 236 239 241 243 244 243 247 252 249 246 244 241 238 236 236 235 235 240 246 231 182 165 168 154 144 145 134 124 119 106 94 82 69 59 55 59 59 46 33 28
193 200 204 206 207 207 207 208 210 213 215 216 217 217 218 220 220 220 221 222 222 223 225 225 225 226 225 223 223 223 223 223 222 222 223 225 228 229 227 223 220 221 225 228 231 237 241 242 242 242 241 243 245 246 246 246 245 242 236 230 229 233 242 252 250 207 166 165 166 144 134 131 129 120 110 101 90 77 68 58 46 37 24 18 17
199 204 207 209 211 211 210 209 212 215 216 218 219 220 221 223 223 223 223 223 222 223 225 227 228 228 228 228 229 228 227 226 226 225 225 225 227 229 228 224 221 222 226 229 232 236 239 241 241 241 240 240 241 243 244 244 243 239 231 227 229 230 230 240 258 254 183 146 156 160 137 133 135 125 113 104 91 77 63 46 33 21 10 7 7
209 210 211 211 212 213 214 214 215 216 218 220 221 221 223 226 227 227 226 224 223 224 225 228 230 230 231 231 232 233 231 230 230 229 228 227 227 229 228 224 222 224 227 230 233 235 237 239 239 238 236 237 239 242 243 242 237 232 227 226 226 223 220 225 242 256 247 135 126 148 147 143 141 127 115 106 93 78 56 36 25 15 7 3 2
279 255 243 230 222 219 219 220 220 218 220 222 223 223 226 230 231 231 228 226 225 226 227 230 230 231 232 234 235 236 235 234 234 233 232 230 229 229 228 225 224 224 227 230 233 234 235 237 237 236 235 236 238 241 243 239 232 228 226 223 220 217 217 219 224 239 247 231 101 126 156 157 149 133 120 109 93 75 52 34 24 17 11 6 3
279 277 298 281 248 233 228 227 227 225 225 226 226 227 231 236 236 233 230 229 228 228 228 230 231 232 233 235 237 238 238 237 237 236 235 233 231 230 229 227 224 224 227 231 232 233 234 235 236 236 236 236 239 241 240 234 229 226 223 218 216 214 217 219 220 224 235 261 303 252 177 169 155 141 129 112 93 71 52 43 32 25 19 12 8
84 258 326 342 286 246 237 234 232 231 232 231 230 232 235 237 237 235 233 232 231 230 230 230 232 233 235 236 237 239 240 239 238 238 238 237 235 232 229 227 225 226 229 232 233 233 233 233 234 235 234 234 237 237 233 229 225 221 217 215 214 214 219 222 217 216 231 262 271 204 178 172 160 150 142 117 84 53 41 42 33 24 21 18 18
49 35 14 10 358 284 248 239 235 234 236 236 235 237 238 237 238 238 236 234 233 232 232 232 232 234 236 237 237 238 240 240 239 239 239 240 238 234 230 228 227 228 231 233 234 234 234 233 233 232 231 232 233 230 226 224 221 218 215 212 212 219 228 229 222 217 221 219 193 174 173 171 166 162 157 130 63 33 25 27 24 22 24 30 35
40 36 23 8 355 342 308 262 242 235 236 239 240 241 241 240 239 238 237 236 234 233 234 234 234 235 237 239 239 238 239 240 239 238 239 240 239 235 232 230 228 228 230 231 232 233 233 233 232 230 228 228 228 225 223 222 220 218 214 209 215 227 227 220 214 204 188 172 162 165 172 171 170 174 171 125 34 19 14 20 26 29 35 43 48
37 31 23 12 360 350 340 322 277 237 234 238 240 241 243 243 241 240 238 235 234 235 237 237 238 239 238 239 240 240 240 240 238 238 239 239 239 236 233 231 230 230 230 230 231 231 229 228 228 225 221 224 226 223 221 222 221 218 214 216 225 225 208 198 196 186 176 170 164 166 171 173 179 189 194 282 2 4 11 22 30 35 41 44 44
54 45 36 29 21 12 357 340 335 269 245 246 243 241 242 243 241 239 237 237 237 239 240 241 243 243 242 241 241 241 242 241 240 240 240 238 238 237 235 233 232 231 230 229 229 229 227 226 225 221 219 224 227 223 222 223 220 216 218 226 229 216 203 202 201 189 183 182 180 179 177 178 187 200 218 293 340 355 11 22 28 34 38 38 32
60 55 48 41 33 28 27 23 19 12 339 297 263 245 240 239 237 234 232 233 237 241 243 245 247 246 243 243 243 242 242 242 242 243 242 239 238 237 235 233 232 231 230 229 229 229 227 223 220 217 219 222 223 222 223 221 216 218 226 229 223 213 210 211 208 198 193 191 190 191 188 187 197 217 239 295 341 359 9 15 21 29 32 28 22
55 53 50 45 40 36 34 31 27 19 11 13 0 287 240 231 230 228 227 227 230 235 239 241 243 245 245 244 243 243 244 244 244 244 242 239 237 237 235 233 231 230 228 226 226 225 220 212 210 213 219 222 222 225 224 217 214 221 228 225 221 218 216 213 210 206 203 198 196 198 198 199 211 232 246 295 3 2 359 5 16 22 21 14 8
48 47 42 37 36 36 33 30 29 26 27 38 20 342 297 238 229 226 226 229 232 237 242 242 241 242 245 247 246 244 245 246 245 243 241 239 237 237 236 235 232 230 227 223 222 218 208 202 208 217 222 222 222 222 219 216 219 226 225 221 220 219 216 214 214 212 208 205 204 205 206 209 221 239 240 220 17 350 344 354 6 10 6 1 354
32 33 32 28 28 31 30 28 29 31 35 39 15 347 348 336 289 256 244 242 240 245 258 263 254 247 246 247 247 245 245 245 245 243 241 238 235 234 235 234 231 227 222 219 216 210 200 200 214 223 223 219 215 214 214 216 221 224 221 218 217 216 215 215 216 214 211 210 210 208 209 214 221 225 218 205 295 308 313 329 343 348 347 344 340
13 15 20 20 19 22 28 28 27 29 33 35 28 16 10 3 332 290 277 273 265 257 255 257 260 257 251 247 245 244 242 242 242 241 239 237 235 233 231 228 224 218 214 212 208 202 201 212 224 227 223 216 213 212 213 215 219 218 215 214 213 210 208 208 210 211 212 214 214 210 210 216 219 212 205 209 245 267 283 304 318 325 329 330 331
353 357 3 4 2 5 15 24 27 29 29 29 27 22 16 12 2 316 283 278 285 276 258 249 251 261 262 253 245 242 241 241 240 238 235 232 230 229 227 225 219 212 209 209 208 207 214 225 227 224 220 215 211 209 208 209 210 209 210 211 210 208 209 212 214 211 210 213 214 210 210 217 221 213 206 211 233 254 272 289 301 310 319 325 330
330 331 341 348 347 344 350 2 12 22 30 28 24 19 11 2 357 347 320 273 258 263 265 258 250 250 259 266 256 247 245 247 249 247 240 235 233 232 230 224 217 210 208 212 216 218 223 228 226 222 219 214 206 202 204 206 201 200 203 206 208 210 216 221 221 212 205 205 206 207 213 220 219 209 204 215 238 255 268 281 296 310 319 323 327
350 340 343 353 357 353 356 0 358 359 14 22 19 15 11 1 351 350 349 323 280 269 268 267 257 249 255 269 278 277 268 263 268 269 255 243 243 243 238 227 217 211 211 214 219 225 229 229 226 222 216 208 200 198 203 202 196 194 197 202 207 214 217 214 209 202 199 199 201 207 214 218 211 205 211 227 244 257 268 282 298 309 315 319 323
16 12 6 6 8 7 8 10 6 359 358 357 347 344 353 2 358 349 349 357 345 320 299 294 288 273 267 272 279 285 285 279 277 274 256 238 237 240 239 231 223 220 220 222 227 233 236 236 232 223 211 200 196 203 208 203 196 194 196 200 206 213 214 207 200 196 196 198 204 212 216 211 206 209 220 233 242 250 266 284 298 306 311 316 321
24 24 17 8 3 2 1 3 5 4 1 357 347 338 337 338 332 322 312 309 314 316 312 307 304 297 287 283 284 285 287 287 282 270 253 235 227 229 232 233 231 231 235 243 247 246 244 244 239 227 213 202 206 217 215 205 197 196 198 201 204 209 211 207 201 198 201 204 210 214 212 207 207 212 219 226 234 246 267 284 294 301 308 314 320
27 23 18 10 1 357 354 354 354 354 354 356 356 353 350 339 322 309 301 296 299 306 308 306 304 301 292 288 289 289 288 285 275 261 248 236 228 228 231 235 236 236 240 247 250 250 254 256 247 232 220 216 231 237 217 200 195 196 198 199 202 207 211 209 205 203 205 205 206 205 204 204 208 213 215 221 233 250 267 279 289 298 306 315 323
14 11 9 4 357 353 350 348 346 347 347 347 349 351 349 341 333 325 313 299 289 289 296 302 305 305 303 302 302 300 292 280 265 253 247 243 240 238 238 239 240 239 240 243 244 246 255 261 251 234 223 223 235 233 210 197 194 196 196 195 197 203 206 206 203 202 202 202 200 199 200 203 207 212 218 228 243 257 269 280 289 299 310 320 325